Temp
55 56 55 55 55 53 47 44 45 49 46 43 38 35 34 37 36 36 35 33 33 31 32 31 31 30 33 36 32 27 28 23 19 20 10 11 13 18 21 19 14 8 10 18
54 55 54 54 55 52 44 42 41 50 50 35 35 36 35 36 36 35 34 33 34 33 31 28 32 33 33 34 32 27 28 23 19 18 12 13 14 15 14 12 15 12 15 24
54 54 54 53 54 53 46 44 39 44 40 36 34 30 32 33 37 35 35 34 33 31 30 33 29 30 31 32 32 33 33 26 24 23 26 22 14 15 12 16 14 18 15 24
53 53 53 53 53 52 48 41 34 33 35 35 32 29 29 31 31 35 34 33 31 30 26 30 29 31 31 30 32 33 30 18 23 23 26 25 22 23 15 9 17 14 23 18
53 53 52 52 52 51 44 41 37 34 35 31 32 30 31 30 32 33 31 29 34 32 26 29 24 30 31 29 29 28 28 20 19 16 25 25 20 23 24 15 17 18 19 17
53 52 51 52 51 50 43 39 37 36 35 32 31 33 33 32 33 36 35 34 30 29 31 33 34 34 33 33 29 26 23 21 17 17 20 22 19 24 24 23 17 18 14 22
53 53 52 52 51 47 45 39 40 34 33 32 32 33 33 31 33 30 34 35 30 32 34 33 32 29 27 27 27 30 21 18 20 16 19 12 27 32 29 26 23 22 23 25
52 52 52 51 51 49 45 41 40 34 31 33 33 33 32 34 34 30 30 34 34 32 30 25 22 26 21 18 20 22 24 20 16 12 13 22 30 24 24 23 27 29 23 27
52 52 51 52 51 49 45 42 43 37 30 33 34 31 31 28 28 27 31 34 34 32 27 23 16 16 21 18 15 21 20 18 17 12 8 11 25 26 29 28 21 30 28 29
51 51 51 51 51 51 43 40 41 37 30 36 34 29 29 27 26 25 29 28 28 29 23 19 17 17 18 16 14 11 14 15 11 13 10 18 29 29 29 17 22 29 29 27
51 51 51 51 51 51 46 42 40 36 30 33 34 33 30 29 28 24 28 27 25 23 18 17 18 16 20 15 19 14 14 11 11 12 9 9 27 24 19 25 31 30 27 28
51 51 51 51 51 50 49 38 41 39 32 33 34 35 33 33 32 28 29 25 24 25 21 19 18 18 20 18 14 17 14 19 17 16 20 31 27 26 27 25 26 29 27 28
50 51 51 50 50 50 48 41 37 35 30 33 33 31 32 34 33 34 26 28 26 24 25 22 21 15 21 15 18 18 24 21 18 18 25 26 27 28 29 28 26 28 28 26
50 51 51 50 49 49 48 40 36 35 33 28 30 33 31 34 32 31 31 26 25 24 25 21 19 17 23 19 16 17 22 20 20 19 24 24 28 29 29 28 26 24 27 26
49 50 50 49 48 47 38 36 35 36 32 28 31 31 34 31 30 30 29 26 22 21 19 17 17 21 19 20 16 16 22 19 17 15 21 21 22 26 27 23 25 27 28 28
49 49 49 47 47 42 41 33 35 36 34 29 24 32 30 30 29 28 25 25 21 21 19 18 18 16 17 14 13 21 23 23 25 21 24 24 25 25 26 26 27 28 27 27
49 49 48 45 44 40 35 31 34 38 34 29 24 26 30 27 26 26 23 21 21 20 19 17 16 18 19 16 12 22 24 25 25 26 25 23 24 22 26 26 27 27 27 27
49 48 46 45 43 40 34 35 38 36 32 29 21 24 27 26 27 25 23 19 20 18 17 18 16 19 18 13 20 23 24 25 25 26 26 25 26 26 27 28 28 26 25 25
48 45 44 40 36 33 33 38 35 32 31 23 21 19 19 28 26 23 21 20 16 17 15 15 16 16 12 18 21 21 23 23 23 26 26 26 24 25 26 27 27 25 25 27
46 39 35 29 33 40 37 32 28 26 24 24 23 22 22 24 23 23 20 18 14 11 14 16 12 13 20 21 21 24 24 24 25 22 21 23 23 24 25 25 27 27 27 27
37 33 30 34 37 33 26 22 21 20 20 21 23 21 21 25 18 18 17 13 14 9 13 11 12 12 20 27 26 26 27 25 25 26 27 27 26 25 25 25 26 26 26 26
36 35 35 33 27 23 20 16 19 20 21 23 22 24 21 21 20 16 14 11 10 7 13 10 9 18 22 25 24 28 28 27 25 28 26 27 26 26 25 24 24 24 25 25
32 28 24 23 21 16 17 11 17 17 21 23 23 22 21 19 19 13 11 8 8 11 7 10 16 21 22 26 27 29 31 27 27 26 27 25 24 24 23 21 24 22 22 23
24 18 14 17 16 18 19 21 22 25 22 24 20 20 19 20 16 13 9 12 9 7 4 10 19 21 25 28 28 25 23 24 24 24 23 22 21 21 22 21 19 18 19 20
25 20 14 14 21 19 20 16 17 22 20 21 20 18 18 17 13 14 10 8 7 9 11 17 22 25 25 23 21 21 20 20 20 20 19 19 19 18 18 19 17 18 19 19
25 23 18 18 16 19 16 16 18 22 19 19 19 14 11 11 12 9 8 6 6 14 17 23 27 24 21 20 19 18 18 17 17 18 18 18 17 15 15 16 16 16 16 16
23 22 24 21 18 20 22 23 23 22 22 19 14 9 11 11 10 8 11 10 18 23 23 27 24 20 19 18 17 17 17 16 16 17 17 17 17 17 16 14 14 14 14 14
MSLP
1025.88 1025.30 1024.76 1024.16 1023.41 1022.56 1022.04 1022.11 1021.48 1021.18 1020.85 1021.55 1022.58 1022.82 1023.12 1023.16 1022.89 1023.17 1023.07 1022.90 1022.33 1021.84 1021.49 1020.91 1020.71 1020.73 1021.06 1021.86 1022.65 1023.09 1023.67 1024.14 1024.47 1025.34 1027.08 1027.80 1027.42 1026.59 1025.79 1025.03 1024.30 1023.46 1021.55 1017.17
1026.13 1025.35 1024.95 1024.36 1023.75 1023.32 1023.28 1022.89 1022.47 1021.31 1020.96 1022.82 1023.48 1023.50 1023.52 1023.44 1023.22 1023.09 1023.01 1022.71 1022.50 1022.32 1021.96 1021.64 1020.82 1020.88 1021.45 1021.94 1022.32 1022.60 1023.24 1023.64 1023.51 1024.24 1026.36 1026.94 1026.44 1025.87 1025.65 1025.18 1024.11 1022.17 1020.61 1016.58
1026.44 1025.81 1025.32 1024.76 1024.11 1023.55 1023.63 1023.30 1023.20 1022.99 1023.42 1024.88 1024.57 1024.44 1023.75 1023.53 1023.38 1023.24 1023.16 1022.81 1022.75 1022.51 1021.99 1021.78 1021.21 1021.13 1021.51 1022.08 1022.24 1022.57 1022.77 1022.55 1022.20 1021.78 1022.02 1023.06 1024.09 1024.25 1024.73 1024.31 1023.21 1020.42 1018.81 1016.60
1026.84 1026.36 1025.65 1025.17 1024.41 1023.64 1023.74 1024.46 1025.52 1025.99 1025.13 1024.98 1025.17 1025.10 1024.67 1024.02 1023.65 1023.42 1023.23 1022.72 1022.66 1022.58 1022.27 1021.75 1021.12 1021.32 1021.57 1021.96 1022.07 1022.35 1022.63 1022.02 1021.52 1021.04 1020.93 1021.19 1021.29 1021.27 1022.29 1022.28 1020.38 1020.21 1017.26 1017.41
1027.11 1026.70 1026.26 1025.73 1024.79 1024.06 1024.59 1025.79 1026.34 1026.48 1025.87 1025.76 1025.28 1025.02 1024.42 1024.26 1024.02 1023.95 1023.15 1023.06 1022.68 1022.97 1022.70 1022.43 1021.50 1021.59 1021.78 1021.50 1022.13 1022.36 1022.66 1021.78 1021.56 1020.51 1019.82 1019.61 1019.22 1018.53 1018.99 1019.60 1019.61 1019.15 1018.05 1017.16
1027.58 1027.21 1026.66 1026.14 1025.65 1024.86 1025.86 1026.96 1027.13 1026.65 1025.87 1025.68 1025.33 1024.85 1024.63 1024.28 1024.28 1023.35 1023.34 1023.32 1023.30 1023.13 1022.65 1022.46 1021.89 1021.68 1021.53 1021.29 1021.49 1021.96 1022.45 1022.24 1021.77 1019.56 1019.58 1018.85 1017.12 1015.04 1015.94 1016.87 1017.52 1017.65 1017.81 1015.77
1028.16 1027.80 1027.28 1026.83 1026.66 1026.60 1026.80 1027.41 1027.27 1026.86 1025.90 1025.63 1025.14 1024.94 1024.81 1024.52 1024.41 1024.07 1023.36 1023.49 1023.56 1023.18 1023.10 1022.37 1021.59 1021.12 1021.10 1021.56 1021.76 1021.97 1022.15 1022.55 1022.15 1020.10 1019.52 1017.11 1014.47 1014.36 1014.88 1015.12 1015.70 1016.34 1015.89 1015.57
1029.19 1028.59 1027.88 1027.36 1027.21 1027.07 1027.06 1027.38 1027.21 1027.08 1026.43 1025.64 1025.09 1024.88 1024.78 1024.41 1024.30 1024.09 1023.66 1023.40 1023.62 1023.82 1023.38 1022.50 1021.36 1020.52 1021.17 1022.00 1022.31 1022.37 1022.54 1022.57 1022.00 1020.84 1018.90 1015.90 1013.81 1014.48 1014.80 1014.86 1014.14 1014.35 1015.01 1015.27
1029.73 1029.25 1028.69 1028.02 1027.78 1027.74 1027.60 1027.58 1027.43 1027.29 1027.05 1025.38 1025.33 1025.12 1024.95 1024.83 1024.41 1024.19 1023.75 1023.81 1024.10 1024.19 1023.67 1023.29 1022.55 1021.60 1021.65 1021.86 1022.66 1023.17 1023.19 1023.03 1022.40 1021.43 1019.50 1016.47 1014.61 1014.94 1015.22 1015.32 1014.12 1014.02 1014.84 1015.17
1029.82 1029.33 1028.82 1028.37 1028.05 1027.69 1027.96 1027.65 1027.63 1027.43 1027.12 1025.66 1025.67 1025.69 1025.67 1025.84 1025.42 1024.88 1024.38 1024.64 1024.64 1024.73 1024.29 1023.68 1023.24 1022.57 1022.67 1022.49 1022.54 1022.84 1022.93 1022.70 1021.84 1020.97 1019.47 1017.05 1015.19 1015.61 1015.81 1015.72 1015.06 1014.60 1015.06 1015.62
1029.97 1029.44 1028.91 1028.36 1027.93 1027.43 1027.42 1027.48 1027.66 1027.84 1027.32 1026.37 1026.10 1026.26 1026.32 1026.19 1026.16 1025.72 1025.45 1025.38 1025.61 1025.53 1025.26 1025.08 1024.49 1023.92 1023.32 1023.29 1022.47 1022.10 1022.26 1021.96 1021.39 1020.76 1019.34 1017.37 1016.53 1016.83 1016.71 1016.43 1015.69 1015.39 1015.94 1015.74
1030.10 1029.45 1028.85 1028.30 1027.80 1027.36 1027.03 1027.35 1027.46 1027.72 1027.94 1026.86 1026.70 1026.70 1027.10 1027.13 1026.88 1026.93 1026.66 1026.88 1026.69 1026.35 1026.08 1025.94 1025.44 1024.45 1023.48 1023.01 1022.03 1022.33 1022.11 1021.57 1021.18 1020.76 1018.31 1016.49 1017.04 1016.55 1016.68 1016.70 1016.40 1016.00 1016.09 1015.68
1030.06 1029.32 1028.63 1028.09 1027.54 1026.97 1026.74 1026.80 1027.33 1027.66 1027.43 1026.70 1026.68 1026.99 1027.47 1027.38 1027.21 1027.18 1027.27 1026.84 1027.14 1027.31 1027.49 1026.77 1025.92 1024.94 1024.05 1023.25 1022.59 1022.39 1021.76 1021.78 1021.10 1020.38 1017.71 1017.34 1016.88 1016.47 1016.37 1016.41 1016.20 1015.92 1015.73 1015.58
1029.87 1029.10 1028.32 1027.62 1027.01 1026.48 1026.22 1026.88 1027.46 1027.52 1027.31 1026.82 1026.94 1027.18 1027.11 1027.06 1027.22 1027.33 1027.38 1027.59 1027.99 1028.00 1027.74 1027.23 1026.41 1025.40 1024.76 1023.85 1023.90 1023.26 1022.32 1021.85 1020.66 1019.41 1018.24 1017.09 1016.47 1016.17 1016.16 1015.83 1015.69 1015.75 1015.43 1015.16
1029.77 1028.94 1028.11 1027.31 1026.61 1026.14 1026.80 1027.46 1027.93 1027.81 1028.01 1027.43 1026.84 1026.99 1026.78 1027.20 1027.38 1027.39 1027.49 1027.83 1028.13 1028.03 1027.90 1027.50 1026.71 1026.26 1025.79 1024.80 1024.40 1023.12 1022.17 1021.71 1020.82 1019.62 1018.38 1017.64 1016.11 1016.10 1016.04 1015.86 1015.30 1015.09 1014.76 1014.48
1029.56 1028.72 1027.93 1027.46 1026.85 1026.81 1026.87 1027.58 1028.48 1028.34 1028.30 1027.84 1027.37 1027.07 1026.81 1027.05 1026.97 1027.03 1027.44 1027.75 1028.15 1028.31 1028.11 1027.79 1027.43 1027.43 1027.07 1025.52 1024.23 1022.38 1021.86 1021.46 1020.63 1019.71 1018.32 1016.93 1016.04 1015.76 1015.38 1015.01 1014.72 1014.42 1014.19 1014.03
1029.22 1028.41 1027.90 1027.80 1027.42 1027.31 1027.88 1028.92 1028.75 1028.44 1028.60 1028.11 1027.67 1027.08 1026.80 1026.95 1026.73 1026.90 1027.55 1028.19 1028.51 1028.59 1028.50 1028.31 1027.97 1027.40 1026.89 1025.85 1024.49 1022.67 1021.86 1021.05 1020.09 1019.30 1018.35 1016.63 1016.00 1015.64 1015.09 1014.74 1014.33 1014.13 1013.98 1013.80
1028.77 1028.19 1027.97 1027.95 1028.01 1028.30 1028.65 1029.04 1028.86 1028.69 1028.50 1028.42 1028.52 1027.77 1027.37 1027.21 1026.81 1027.14 1028.01 1028.32 1028.61 1028.89 1028.82 1028.45 1028.11 1027.46 1026.87 1025.59 1023.58 1022.59 1021.63 1020.73 1019.69 1018.96 1018.45 1017.81 1016.80 1015.92 1015.33 1014.78 1014.38 1014.17 1013.85 1013.50
1028.54 1028.34 1028.24 1028.40 1028.68 1028.92 1029.22 1029.12 1029.13 1029.16 1029.30 1028.95 1029.10 1028.78 1027.96 1027.34 1027.23 1027.58 1028.25 1028.41 1028.50 1029.25 1028.81 1028.48 1028.34 1026.96 1025.90 1024.04 1023.04 1022.27 1021.32 1020.65 1019.51 1018.58 1017.99 1017.39 1016.74 1015.95 1015.37 1014.98 1014.62 1014.24 1013.49 1012.77
1028.58 1028.51 1028.63 1028.99 1029.49 1029.07 1029.23 1029.20 1029.12 1029.06 1029.53 1029.33 1029.08 1029.20 1028.53 1028.62 1027.98 1027.81 1028.39 1028.66 1028.82 1028.69 1028.92 1028.65 1027.86 1026.13 1024.38 1023.68 1022.90 1021.99 1021.13 1020.54 1019.74 1018.61 1017.38 1016.81 1016.29 1015.85 1015.21 1014.85 1014.43 1013.88 1013.25 1012.96
1029.34 1029.26 1029.26 1029.48 1029.42 1029.47 1029.48 1029.47 1029.49 1029.81 1029.71 1029.39 1029.04 1029.12 1028.86 1028.76 1029.06 1029.00 1029.56 1029.27 1029.20 1029.10 1028.71 1028.22 1026.77 1025.07 1023.27 1022.16 1021.62 1021.11 1020.43 1020.06 1019.71 1019.12 1018.29 1017.61 1016.94 1016.17 1015.41 1014.80 1014.42 1013.89 1013.43 1013.00
1030.04 1030.08 1029.68 1029.71 1029.87 1029.89 1029.96 1030.07 1030.09 1029.93 1029.56 1029.09 1029.02 1028.89 1028.97 1029.32 1029.65 1029.67 1030.02 1029.90 1029.84 1029.16 1028.75 1027.93 1025.81 1023.22 1021.87 1021.38 1020.87 1020.01 1019.53 1019.29 1019.16 1018.73 1018.08 1017.47 1016.99 1016.41 1015.80 1015.24 1014.66 1014.20 1013.70 1013.24
1030.21 1030.35 1030.33 1030.49 1030.69 1030.52 1030.04 1030.21 1029.99 1029.86 1029.35 1028.87 1028.90 1029.06 1029.26 1029.62 1029.80 1029.91 1030.05 1029.98 1029.36 1029.00 1028.21 1026.30 1023.82 1021.82 1021.48 1020.81 1020.07 1019.32 1018.83 1018.98 1018.82 1018.33 1017.98 1017.62 1017.10 1016.64 1016.21 1015.63 1015.04 1014.59 1013.99 1013.63
1030.86 1031.24 1031.02 1031.12 1030.59 1030.16 1029.58 1029.54 1029.35 1028.76 1028.80 1028.87 1029.26 1029.25 1029.52 1029.36 1029.53 1029.71 1029.64 1029.28 1029.24 1028.15 1026.91 1024.42 1022.66 1021.86 1021.15 1020.39 1020.03 1019.61 1019.57 1019.42 1018.74 1018.13 1017.85 1017.53 1017.14 1016.67 1016.22 1015.84 1015.55 1015.05 1014.47 1014.21
1030.93 1031.50 1031.14 1030.49 1029.43 1029.40 1029.35 1029.59 1029.42 1028.74 1028.82 1029.01 1029.38 1029.54 1029.58 1029.26 1029.44 1029.40 1029.27 1028.87 1027.75 1026.44 1024.65 1023.03 1022.16 1021.66 1021.11 1020.92 1020.89 1020.59 1020.14 1019.56 1019.15 1018.75 1018.17 1017.66 1017.17 1016.74 1016.32 1016.07 1015.85 1015.45 1015.00 1014.74
1030.69 1030.67 1030.16 1029.79 1029.96 1029.10 1029.38 1029.27 1028.91 1028.51 1028.79 1029.11 1029.31 1029.48 1029.53 1029.25 1029.26 1029.13 1028.24 1027.77 1026.05 1024.25 1023.44 1022.65 1021.91 1021.68 1022.01 1021.87 1021.68 1021.37 1020.88 1020.34 1019.72 1019.15 1018.60 1018.08 1017.65 1017.16 1016.73 1016.42 1016.27 1016.00 1015.66 1015.44
1030.08 1029.31 1029.20 1029.42 1029.26 1028.81 1028.40 1028.18 1028.07 1028.32 1028.59 1028.78 1029.14 1029.30 1028.91 1029.11 1028.68 1027.78 1027.08 1025.78 1023.93 1023.36 1022.81 1022.32 1022.41 1022.59 1022.58 1022.63 1022.39 1021.91 1021.37 1020.76 1020.15 1019.53 1018.92 1018.49 1018.13 1017.61 1017.13 1016.78 1016.71 1016.54 1016.39 1016.27
Wind_Speed
18 17 15 19 23 24 6 3 1 4 3 5 3 2 5 2 2 1 1 2 3 3 4 5 4 4 4 8 8 3 3 2 5 4 3 3 3 3 6 5 6 0 4 9
19 18 17 19 22 16 4 3 3 3 4 5 4 4 3 2 2 2 1 3 4 1 3 6 6 4 2 8 8 7 8 3 6 5 3 2 6 6 2 3 2 9 6 6
18 18 18 20 22 17 1 2 3 4 5 2 1 4 1 5 1 3 3 4 3 3 4 7 5 4 2 8 7 6 9 5 11 11 7 4 6 8 10 9 6 7 13 13
19 18 19 21 23 16 1 5 3 2 5 3 2 2 2 3 6 2 3 3 7 4 4 9 10 5 3 8 8 6 6 7 11 17 18 15 17 20 16 18 21 12 11 10
19 18 18 22 25 12 5 3 4 1 2 2 5 0 2 2 3 4 5 6 5 4 9 12 22 20 16 13 6 10 6 5 2 7 16 18 21 24 20 23 21 24 23 29
19 17 16 20 23 11 4 1 1 1 0 1 3 2 3 6 11 6 10 11 13 17 18 10 13 14 14 14 7 13 7 5 3 8 2 13 18 20 17 13 8 16 17 14
20 14 13 17 18 10 2 1 1 2 3 2 3 6 10 11 7 13 15 13 12 2 7 14 14 15 14 12 12 11 6 5 4 9 8 8 3 7 7 16 9 18 15 13
22 23 15 13 14 12 3 0 1 1 5 5 6 8 10 12 8 10 10 7 2 6 6 6 8 4 4 4 5 7 5 7 4 6 5 13 14 3 3 5 3 19 15 14
21 21 21 19 15 12 2 1 0 1 3 3 3 9 5 7 6 3 5 1 3 2 3 3 4 5 6 2 1 4 4 1 8 3 6 6 5 2 0 2 8 2 12 2
19 19 18 18 17 15 1 3 2 1 3 3 2 5 6 1 4 5 4 5 3 4 2 3 3 4 2 5 5 2 3 5 14 13 8 9 8 3 3 5 3 6 8 2
22 20 19 18 17 15 3 3 2 1 3 5 1 1 4 2 2 4 7 4 3 1 3 3 3 4 4 5 4 5 5 5 5 5 7 9 3 3 4 5 7 6 6 9
23 23 23 22 20 19 12 2 2 2 2 4 2 2 3 2 2 2 2 2 3 2 3 3 3 5 4 5 6 2 3 5 6 7 8 12 3 4 3 3 6 10 7 4
25 25 25 25 23 21 13 2 2 1 2 3 2 1 1 1 1 1 2 2 4 2 5 3 3 7 2 4 3 6 6 2 5 9 4 16 15 14 11 8 13 11 8 8
27 27 28 27 25 21 9 1 1 0 3 3 2 1 4 2 1 1 1 1 2 1 1 3 4 5 1 2 3 5 6 6 10 17 18 17 14 9 10 14 8 8 9 9
28 29 28 27 24 10 9 4 3 2 2 3 4 4 1 1 1 4 2 2 1 2 2 4 3 3 3 1 2 4 2 6 7 14 25 19 20 12 15 10 11 13 13 12
27 28 27 18 14 10 1 2 3 5 3 1 3 2 2 2 4 6 4 2 2 0 2 1 2 1 3 3 3 5 5 10 14 10 21 19 18 18 17 15 15 12 10 8
28 28 23 9 13 7 5 3 4 6 2 0 2 5 1 3 3 1 3 3 2 2 1 1 3 2 4 2 4 9 14 16 19 13 18 11 7 8 12 8 10 10 8 7
28 25 10 9 9 4 3 3 6 1 1 2 1 4 5 4 4 3 2 2 1 3 2 1 2 3 2 4 10 14 15 18 14 16 12 12 14 10 9 9 9 9 8 8
25 12 3 2 4 3 2 1 4 2 2 2 1 2 5 3 2 1 1 1 2 0 1 1 3 2 5 10 11 14 17 15 19 18 12 14 13 12 8 9 10 9 9 9
15 4 2 2 1 8 3 2 2 3 3 2 2 1 4 1 3 2 3 2 2 2 0 2 3 4 8 12 13 12 14 13 15 17 18 18 16 16 16 15 13 12 11 12
4 4 2 1 5 1 2 1 2 3 2 1 1 3 4 2 2 2 2 3 2 3 1 3 2 4 4 9 14 13 12 10 11 11 12 13 14 16 17 16 15 14 13 12
4 6 4 2 3 1 2 2 2 0 2 2 2 3 2 1 0 1 2 2 2 4 4 2 4 6 7 9 13 15 14 11 11 14 16 16 17 16 16 15 15 14 14 12
2 3 2 2 1 2 3 3 2 2 2 3 2 4 1 2 1 2 0 2 4 2 2 4 6 4 7 14 15 15 17 6 14 17 16 16 16 14 13 14 13 13 10 8
3 4 6 1 2 4 5 5 3 3 3 3 1 2 2 0 2 1 2 0 2 3 4 6 3 5 14 17 14 11 13 17 17 17 17 17 15 14 13 11 9 9 8 6
2 1 5 6 3 3 2 1 3 3 1 1 1 1 1 1 2 1 2 2 4 5 5 3 5 12 15 12 14 14 15 14 13 13 13 15 15 13 12 9 9 9 7 5
2 5 5 2 2 3 1 3 4 2 3 2 1 1 1 2 1 2 5 2 6 4 4 6 11 11 10 13 14 14 13 13 12 12 12 12 12 11 11 8 6 7 6 5
4 5 4 3 3 6 3 3 3 4 3 2 2 0 5 1 3 4 5 6 4 7 8 8 7 13 13 12 13 13 13 13 13 12 12 10 9 8 6 7 7 5 6 6
Wind_Direction
359 348 346 349 353 350 40 336 28 7 284 41 35 31 323 329 295 169 236 253 271 283 308 278 267 263 246 170 162 190 174 186 260 252 69 11 335 278 216 243 171 171 315 271
350 2 360 356 356 12 320 16 316 344 327 55 11 332 312 283 292 286 259 258 220 206 271 290 238 254 92 168 182 179 175 205 290 195 162 167 234 188 204 48 358 212 238 247
357 2 3 359 353 0 29 355 1 29 53 32 34 347 351 319 223 268 259 274 231 240 243 221 283 261 175 195 220 208 182 226 232 265 326 110 201 197 200 204 222 236 232 267
9 9 15 3 354 359 313 11 53 40 353 39 349 227 311 319 343 239 230 238 237 224 277 294 260 263 235 201 216 212 215 248 241 254 270 259 258 257 197 206 224 234 266 241
21 14 22 12 3 6 73 20 346 124 302 282 305 333 218 288 319 294 281 244 291 244 261 262 284 290 287 268 176 193 201 268 276 270 259 256 266 261 249 221 238 244 255 275
27 33 29 24 15 14 60 56 145 267 56 329 307 343 320 311 325 267 258 285 299 287 286 289 278 274 261 259 228 202 193 229 253 272 332 292 271 258 241 212 202 224 230 242
22 17 28 32 27 37 56 54 302 332 294 275 281 303 297 288 292 279 289 295 280 300 299 280 260 255 261 262 254 243 199 196 230 291 302 244 65 302 258 216 213 209 242 256
15 16 19 27 25 28 65 150 303 17 289 279 291 305 304 300 283 273 285 272 284 337 305 302 307 272 182 71 47 227 230 208 245 260 239 312 297 95 138 187 251 218 227 257
9 10 14 18 3 3 14 273 286 201 292 242 286 311 306 308 325 267 243 313 359 303 290 259 282 305 326 337 15 56 112 263 225 184 257 261 36 86 330 229 263 67 179 208
2 3 4 11 2 360 12 289 259 213 260 265 213 296 318 291 268 272 308 341 344 348 346 285 302 278 283 295 301 188 192 215 225 235 261 276 289 240 166 243 50 118 163 235
355 354 353 354 351 348 343 287 199 270 255 292 235 297 291 288 266 313 1 284 42 26 8 317 359 285 348 286 268 219 223 205 207 211 236 271 73 55 248 355 354 46 319 275
349 349 349 346 343 343 342 268 163 154 225 288 359 13 11 263 236 252 335 310 260 229 270 211 279 274 252 276 284 112 267 239 305 222 267 312 284 271 266 267 289 301 285 315
344 344 345 343 335 334 333 255 138 161 247 240 264 120 126 106 198 288 258 233 3 11 359 329 289 266 292 277 320 331 311 269 260 312 277 289 300 294 272 265 264 271 239 258
341 340 341 338 336 328 344 23 28 185 295 279 75 196 263 184 201 188 244 151 85 92 253 254 259 265 218 311 306 300 341 317 296 279 287 300 278 292 291 299 244 259 260 242
340 337 338 345 337 29 79 76 31 355 334 323 323 298 264 72 235 264 258 248 176 213 225 225 249 302 316 296 272 252 209 297 313 313 308 286 283 283 294 273 268 277 279 270
338 334 342 352 357 124 127 118 58 18 354 292 329 324 288 11 244 279 317 185 168 198 294 281 287 251 283 300 281 268 257 283 295 297 310 290 279 287 281 267 275 287 278 268
333 336 350 23 56 53 49 8 327 356 318 219 305 320 8 307 295 84 79 62 73 332 30 301 320 304 300 275 266 288 302 306 310 295 328 332 321 315 313 282 286 287 287 274
333 343 352 103 78 87 50 19 359 15 72 40 54 297 302 18 319 337 10 61 62 41 350 267 313 294 272 258 255 299 298 311 309 332 326 326 318 311 324 326 324 308 284 268
338 355 73 51 36 19 352 62 37 42 7 98 69 323 317 352 289 313 125 331 30 269 285 283 312 269 235 247 286 300 314 317 321 326 321 336 335 332 332 335 325 304 317 335
340 24 18 33 41 323 349 6 348 13 357 40 230 145 300 331 347 312 333 8 7 318 30 296 228 260 264 274 276 290 306 309 323 327 337 335 337 338 334 334 332 327 327 318
2 338 325 326 321 11 26 348 21 332 337 185 252 231 299 47 284 307 28 332 341 295 58 315 252 257 258 300 315 308 301 296 306 302 305 316 318 322 323 325 327 325 322 320
288 291 351 359 22 23 30 0 307 244 279 247 250 325 235 32 359 259 22 313 341 262 339 293 255 246 252 323 307 318 309 298 315 326 323 322 323 322 321 320 322 322 319 321
48 34 28 2 345 27 99 309 282 281 212 243 308 317 352 166 116 91 22 255 235 320 245 248 245 286 304 328 322 315 322 326 327 324 328 326 321 324 326 323 325 328 325 337
39 23 315 217 273 239 195 200 212 238 228 281 303 270 294 350 249 172 263 241 282 271 249 241 272 281 327 321 330 350 359 336 322 321 327 328 328 326 326 328 327 329 337 347
260 125 248 227 266 257 260 298 283 224 232 200 232 198 287 261 278 238 303 277 257 232 248 261 319 325 321 359 347 336 329 327 338 327 323 325 330 328 323 332 331 330 331 351
219 231 252 211 310 265 237 213 259 177 138 129 86 115 338 259 232 245 226 221 238 263 245 299 318 341 348 343 341 336 335 332 330 332 329 329 333 331 325 327 350 349 357 22
223 240 232 232 281 252 250 202 225 141 150 206 138 274 239 75 241 249 198 223 243 318 308 312 13 346 344 341 337 337 335 337 336 332 331 336 334 327 348 2 4 15 31 50